Terminal Aerodrome Forecast
Issued by NWS Missoula, MT

Home | Current Version | Previous Version | Text Only | Print | Product List | Glossary On
Versions: 1 2 3 4 5 6 7 8 9 10 11 12 13 14 15 16 17 18 19
555
FTUS45 KMSO 202330
TAFGPI
TAF
KGPI 202330Z 2100/2124 19003KT P6SM BKN080
     FM210500 00000KT 4SM BR VCFG SCT005
     FM211200 VRB03KT 2SM BR VCFG SCT005 OVC010
     FM211600 00000KT 5SM BR OVC060=

USA.gov is the U.S. government's official web portal to all federal, state and local government web resources and services.